EN

Hourly Weather Ames

Today, 27 January, Wednesday

Time Temperature Precipitation Wind Pressure Humidity
00:00 +15°C° 0 mm 2 mps 753 mmHg 98%
01:00 +15°C° 0 mm 2 mps 753 mmHg 98%
02:00 +15°C° 0 mm 2 mps 752 mmHg 98%
03:00 +15°C° 0.1 mm 2 mps 753 mmHg 98%
04:00 +15°C° 0.1 mm 2 mps 753 mmHg 98%
05:00 +15°C° 0.1 mm 2 mps 753 mmHg 98%
06:00 +15°C° 0.1 mm 2 mps 753 mmHg 98%
07:00 +15°C° 0.1 mm 2 mps 753 mmHg 98%
08:00 +15°C° 0.1 mm 2 mps 753 mmHg 98%
09:00 +15°C° 0 mm 2 mps 753 mmHg 97%
10:00 +16°C° 0 mm 3 mps 754 mmHg 96%
11:00 +16°C° 0 mm 3 mps 754 mmHg 94%
12:00 +16°C° 0 mm 3 mps 753 mmHg 94%
13:00 +16°C° 0 mm 3 mps 753 mmHg 93%
14:00 +16°C° 0 mm 3 mps 752 mmHg 92%
15:00 +14°C° 0 mm 3 mps 752 mmHg 93%
16:00 +14°C° 0 mm 3 mps 752 mmHg 94%
17:00 +14°C° 0 mm 3 mps 752 mmHg 95%
18:00 +14°C° 0 mm 3 mps 752 mmHg 95%
19:00 +14°C° 0 mm 3 mps 752 mmHg 94%
20:00 +14°C° 0 mm 3 mps 752 mmHg 94%
21:00 +13°C° 0 mm 3 mps 752 mmHg 94%
22:00 +13°C° 0 mm 3 mps 752 mmHg 94%
23:00 +13°C° 0 mm 3 mps 752 mmHg 94%

Tomorrow, 28 January, Thursday

Time Temperature Precipitation Wind Pressure Humidity
00:00 +13°C° 0 mm 3 mps 752 mmHg 94%
01:00 +14°C° 0 mm 3 mps 751 mmHg 94%
02:00 +14°C° 0 mm 3 mps 751 mmHg 94%
03:00 +14°C° 0.1 mm 3 mps 751 mmHg 94%
04:00 +14°C° 0.1 mm 3 mps 750 mmHg 94%
05:00 +14°C° 0.1 mm 3 mps 750 mmHg 95%
06:00 +14°C° 0.1 mm 3 mps 750 mmHg 95%
07:00 +14°C° 0.1 mm 3 mps 750 mmHg 94%
08:00 +14°C° 0.1 mm 3 mps 750 mmHg 94%
09:00 +14°C° 0.1 mm 3 mps 750 mmHg 94%
10:00 +14°C° 0.1 mm 4 mps 750 mmHg 93%
11:00 +14°C° 0.1 mm 4 mps 750 mmHg 93%
12:00 +14°C° 0.2 mm 4 mps 749 mmHg 93%
13:00 +14°C° 0.2 mm 4 mps 749 mmHg 93%
14:00 +14°C° 0.2 mm 4 mps 748 mmHg 93%
15:00 +14°C° 0.2 mm 5 mps 748 mmHg 93%
16:00 +14°C° 0.2 mm 5 mps 748 mmHg 93%
17:00 +14°C° 0.2 mm 5 mps 748 mmHg 93%
18:00 +14°C° 1.7 mm 5 mps 748 mmHg 94%
19:00 +13°C° 1.7 mm 5 mps 748 mmHg 95%
20:00 +13°C° 1.7 mm 5 mps 748 mmHg 96%
21:00 +13°C° 0.4 mm 5 mps 748 mmHg 96%
22:00 +13°C° 0.4 mm 5 mps 749 mmHg 97%
23:00 +13°C° 0.4 mm 4 mps 749 mmHg 97%

Day after tomorrow, 29 January, Friday

Time Temperature Precipitation Wind Pressure Humidity
00:00 +13°C° 0.3 mm 4 mps 749 mmHg 97%
01:00 +13°C° 0.3 mm 3 mps 749 mmHg 97%
02:00 +13°C° 0.3 mm 3 mps 749 mmHg 98%
03:00 +13°C° 0.1 mm 3 mps 748 mmHg 97%
04:00 +13°C° 0.1 mm 3 mps 748 mmHg 97%
05:00 +13°C° 0.1 mm 3 mps 748 mmHg 97%
06:00 +13°C° 0 mm 3 mps 748 mmHg 97%
07:00 +13°C° 0 mm 3 mps 748 mmHg 97%
08:00 +13°C° 0 mm 3 mps 748 mmHg 96%
09:00 +13°C° 0.1 mm 4 mps 748 mmHg 95%
10:00 +14°C° 0.1 mm 4 mps 748 mmHg 94%
11:00 +14°C° 0.1 mm 4 mps 747 mmHg 93%
12:00 +14°C° 0.1 mm 5 mps 747 mmHg 92%
13:00 +14°C° 0.1 mm 5 mps 746 mmHg 92%
14:00 +14°C° 0.1 mm 5 mps 745 mmHg 91%
15:00 +14°C° 0.1 mm 6 mps 744 mmHg 91%
16:00 +13°C° 0.1 mm 6 mps 744 mmHg 91%
17:00 +12°C° 0.1 mm 7 mps 743 mmHg 91%
18:00 +12°C° 4.8 mm 7 mps 743 mmHg 93%
19:00 +12°C° 4.8 mm 7 mps 742 mmHg 95%
20:00 +12°C° 4.8 mm 7 mps 742 mmHg 97%
21:00 +11°C° 0.8 mm 6 mps 742 mmHg 94%
22:00 +9°C° 0.8 mm 6 mps 742 mmHg 92%
23:00 +8°C° 0.8 mm 5 mps 742 mmHg 89%

30 January, Saturday

Time Temperature Precipitation Wind Pressure Humidity
00:00 +8°C° 0.3 mm 6 mps 742 mmHg 90%
01:00 +8°C° 0.3 mm 6 mps 743 mmHg 90%
02:00 +8°C° 0.3 mm 6 mps 743 mmHg 90%
03:00 +8°C° 0.2 mm 6 mps 743 mmHg 89%
04:00 +8°C° 0.2 mm 6 mps 742 mmHg 88%
05:00 +8°C° 0.2 mm 6 mps 742 mmHg 87%
06:00 +8°C° 0.2 mm 6 mps 743 mmHg 86%
07:00 +8°C° 0.2 mm 6 mps 743 mmHg 86%
08:00 +8°C° 0.2 mm 6 mps 743 mmHg 85%
09:00 +8°C° 0.2 mm 6 mps 744 mmHg 84%
10:00 +8°C° 0.2 mm 6 mps 744 mmHg 83%
11:00 +8°C° 0.2 mm 6 mps 744 mmHg 82%
12:00 +8°C° 0.1 mm 6 mps 745 mmHg 81%
13:00 +8°C° 0.1 mm 6 mps 745 mmHg 79%
14:00 +8°C° 0.1 mm 6 mps 745 mmHg 78%
15:00 +8°C° 0 mm 5 mps 746 mmHg 79%
16:00 +8°C° 0 mm 5 mps 746 mmHg 80%
17:00 +8°C° 0 mm 5 mps 747 mmHg 81%
18:00 +8°C° 0 mm 4 mps 747 mmHg 82%
19:00 +9°C° 0 mm 3 mps 748 mmHg 83%
20:00 +9°C° 0 mm 3 mps 749 mmHg 83%
21:00 +8°C° 0 mm 2 mps 749 mmHg 87%
22:00 +8°C° 0 mm 2 mps 749 mmHg 90%
23:00 +8°C° 0 mm 1 mps 750 mmHg 94%

31 January, Sunday

Time Temperature Precipitation Wind Pressure Humidity
00:00 +8°C° 0 mm 1 mps 749 mmHg 93%
01:00 +8°C° 0 mm 2 mps 749 mmHg 92%
02:00 +8°C° 0 mm 2 mps 749 mmHg 92%
03:00 +8°C° 0 mm 2 mps 749 mmHg 92%
04:00 +8°C° 0 mm 3 mps 748 mmHg 92%
05:00 +9°C° 0 mm 3 mps 748 mmHg 92%
06:00 +8°C° 0.2 mm 4 mps 748 mmHg 92%
07:00 +10°C° 0.2 mm 4 mps 748 mmHg 93%
08:00 +10°C° 0.2 mm 4 mps 748 mmHg 94%
09:00 +11°C° 0.2 mm 4 mps 748 mmHg 94%
10:00 +12°C° 0.2 mm 4 mps 748 mmHg 95%
11:00 +12°C° 0.2 mm 5 mps 747 mmHg 96%
12:00 +13°C° 0.2 mm 4 mps 747 mmHg 95%
13:00 +13°C° 0.2 mm 4 mps 747 mmHg 94%
14:00 +13°C° 0.2 mm 4 mps 747 mmHg 93%
15:00 +13°C° 0.1 mm 4 mps 747 mmHg 93%
16:00 +12°C° 0.1 mm 3 mps 748 mmHg 94%
17:00 +12°C° 0.1 mm 3 mps 748 mmHg 95%
18:00 +11°C° 0.1 mm 3 mps 748 mmHg 95%
19:00 +11°C° 0.1 mm 3 mps 749 mmHg 96%
20:00 +12°C° 0.1 mm 2 mps 749 mmHg 97%
21:00 +10°C° 0 mm 2 mps 749 mmHg 97%
22:00 +10°C° 0 mm 2 mps 750 mmHg 97%
23:00 +10°C° 0 mm 2 mps 750 mmHg 98%

1 February, Monday

Time Temperature Precipitation Wind Pressure Humidity
00:00 +10°C° 0 mm 2 mps 750 mmHg 98%
01:00 +10°C° 0 mm 2 mps 750 mmHg 98%
02:00 +10°C° 0 mm 2 mps 749 mmHg 98%
03:00 +11°C° 0 mm 3 mps 749 mmHg 98%
04:00 +11°C° 0 mm 3 mps 749 mmHg 97%
05:00 +11°C° 0 mm 3 mps 749 mmHg 97%
06:00 +11°C° 0 mm 3 mps 749 mmHg 96%
07:00 +12°C° 0 mm 4 mps 749 mmHg 95%
08:00 +12°C° 0 mm 4 mps 749 mmHg 95%
09:00 +12°C° 0.1 mm 4 mps 749 mmHg 94%
10:00 +12°C° 0.1 mm 4 mps 749 mmHg 93%
11:00 +13°C° 0.1 mm 5 mps 749 mmHg 92%
12:00 +13°C° 0.1 mm 5 mps 749 mmHg 92%
13:00 +13°C° 0.1 mm 5 mps 748 mmHg 92%
14:00 +13°C° 0.1 mm 5 mps 748 mmHg 92%
15:00 +13°C° 0.2 mm 5 mps 748 mmHg 93%
16:00 +13°C° 0.2 mm 5 mps 748 mmHg 94%
17:00 +13°C° 0.2 mm 5 mps 748 mmHg 94%
18:00 +13°C° 0.1 mm 5 mps 748 mmHg 94%
19:00 +13°C° 0.1 mm 5 mps 748 mmHg 93%
20:00 +12°C° 0.1 mm 4 mps 748 mmHg 93%
21:00 +12°C° 0.1 mm 4 mps 748 mmHg 93%
22:00 +12°C° 0.1 mm 4 mps 748 mmHg 93%
23:00 +12°C° 0.1 mm 4 mps 748 mmHg 92%
Show more